Date,TemperatureHighF,TemperatureAvgF,TemperatureLowF,DewpointHighF,DewpointAvgF,DewpointLowF,HumidityHigh,HumidityAvg,HumidityLow,PressureMaxIn,PressureMinIn,WindSpeedMaxMPH,WindSpeedAvgMPH,GustSpeedMaxMPH,PrecipitationSumIn
2012-1-1,53.9,44.5,30.7,45.1,38.8,30.0,98,81,60,30.12,29.72,20,3,24,0.03
2012-1-2,44.3,35.4,29.2,31.7,21.4,13.4,73,57,40,29.89,29.78,24,4,24,0.00
2012-1-3,29.2,24.6,16.7,21.0,10.3,1.7,77,55,34,30.22,29.88,30,5,31,0.00
2012-1-4,28.3,19.8,11.0,21.3,9.0,-0.7,75,62,55,30.31,30.00,13,2,14,0.00
2012-1-5,40.7,30.3,23.8,26.1,23.1,18.3,92,75,54,30.01,29.94,16,1,16,0.00
2012-1-6,55.9,37.9,22.6,33.4,28.4,20.9,95,72,41,29.97,29.79,14,1,14,0.00
2012-1-7,63.4,43.8,26.7,43.2,32.0,25.0,96,67,37,30.04,29.75,19,1,19,0.00
2012-1-8,45.7,38.3,24.9,29.7,26.7,21.0,87,64,48,30.34,30.04,18,2,18,0.00
2012-1-9,38.9,31.2,23.3,30.9,23.6,20.8,93,75,50,30.35,30.02,8,1,8,0.00
2012-1-10,47.2,35.7,26.2,33.3,30.2,24.6,96,82,54,30.06,29.96,16,2,17,0.00
2012-1-11,48.2,35.7,21.4,41.5,31.4,20.1,97,86,60,30.08,29.64,19,3,20,0.32
2012-1-12,53.7,47.5,42.4,49.2,46.2,41.6,99,95,82,29.64,29.40,19,2,19,0.69
2012-1-13,49.3,33.8,25.5,46.6,24.7,13.6,94,70,51,29.91,29.26,27,7,30,0.03
2012-1-14,32.7,27.8,24.8,19.1,17.2,15.5,74,64,53,30.13,29.91,15,3,17,0.00
2012-1-15,26.0,21.5,15.0,17.9,9.4,4.0,80,60,42,30.60,30.13,18,3,18,0.00
2012-1-16,35.4,24.9,11.5,31.6,16.9,9.2,92,73,47,30.62,30.16,21,3,22,0.04
2012-1-17,52.8,43.9,35.2,48.1,40.2,31.4,96,87,78,30.16,29.61,17,3,17,0.31
2012-1-18,53.1,35.8,20.9,48.0,23.2,14.2,85,61,43,30.19,29.63,27,5,29,0.00
2012-1-19,33.9,26.4,15.7,24.9,16.6,11.6,88,67,46,30.25,29.94,14,2,15,0.00
2012-1-20,34.9,32.8,31.8,27.8,26.1,24.9,79,76,74,30.03,29.97,13,2,13,0.00
2012-1-21,28.2,25.9,23.2,24.8,22.8,13.0,94,88,55,30.33,29.98,13,6,13,0.00
2012-1-22,29.7,25.6,20.4,27.7,19.8,13.1,92,79,68,30.52,30.33,12,4,12,0.00
2012-1-23,42.6,37.9,29.7,42.2,37.4,27.7,100,98,92,30.38,29.90,18,3,18,0.45
2012-1-24,51.9,41.4,33.0,42.6,37.0,31.5,100,86,56,30.20,29.92,18,2,18,0.00
2012-1-25,43.2,37.1,33.2,32.2,30.1,27.6,90,76,63,30.36,30.20,18,2,18,0.00
2012-1-26,43.4,38.3,34.4,43.1,35.3,30.9,99,89,78,30.23,29.76,12,2,12,0.05
2012-1-27,58.9,49.6,39.9,57.9,44.8,28.8,100,85,63,29.94,29.41,26,4,28,0.34
2012-1-28,47.6,40.1,33.1,34.5,28.3,18.8,80,63,44,30.13,29.91,17,3,18,0.00
2012-1-29,44.4,37.0,30.9,31.3,18.3,13.6,94,47,32,30.24,30.05,22,3,22,0.00
2012-1-30,40.2,33.8,29.0,29.1,19.9,11.9,87,57,34,30.35,30.10,17,3,17,0.00
2012-1-31,62.2,46.3,32.6,35.6,29.9,18.9,79,54,35,30.23,30.04,14,2,14,0.00
2012-2-1,64.8,53.6,43.8,47.4,40.6,31.8,84,62,47,30.04,29.92,22,2,22,0.03
2012-2-2,45.9,41.3,36.8,40.7,34.1,24.9,94,76,60,30.29,29.97,23,3,23,0.00
2012-2-3,44.5,34.4,26.0,28.3,25.0,21.7,93,70,52,30.51,30.29,17,2,17,0.00
2012-2-4,43.1,33.4,24.2,33.5,29.0,22.7,95,85,56,30.38,30.12,9,1,9,0.00
2012-2-5,42.9,35.0,24.0,32.7,26.0,21.1,94,70,52,30.22,30.10,15,2,15,0.00
2012-2-6,51.0,34.5,20.2,31.5,25.4,18.9,96,72,41,30.23,30.04,13,2,15,0.00
2012-2-7,49.7,37.3,26.1,32.3,28.2,23.3,92,71,50,30.25,30.05,13,2,19,0.00
2012-2-8,37.6,31.2,25.8,31.5,27.8,24.1,96,88,65,30.30,30.13,7,0,10,0.01
2012-2-9,41.4,31.2,23.2,30.2,24.8,20.8,96,78,50,30.24,30.13,16,2,16,0.05
2012-2-10,41.5,31.0,19.3,32.2,25.2,18.0,97,81,54,30.19,29.93,9,1,9,0.00
2012-2-11,35.8,31.1,21.3,32.8,29.3,15.3,97,93,77,29.93,29.62,28,3,28,0.14
2012-2-12,30.2,23.9,16.5,16.6,13.1,7.2,77,63,52,30.09,29.83,24,6,25,0.00
2012-2-13,44.5,31.7,21.9,24.6,19.0,14.8,75,60,40,30.15,30.03,16,3,17,0.02
2012-2-14,50.2,39.8,28.5,38.0,27.8,19.7,89,64,39,30.11,29.95,14,2,15,0.01
2012-2-15,46.7,39.6,28.0,37.1,33.9,26.0,94,81,61,30.31,30.02,17,2,17,0.00
2012-2-16,41.9,36.8,27.2,40.9,34.6,25.7,97,92,82,30.31,30.02,12,1,12,0.14
2012-2-17,48.9,41.5,30.5,41.0,33.1,25.5,98,75,42,30.08,29.99,17,2,21,0.01
2012-2-18,50.4,40.2,27.1,34.6,26.4,21.6,84,59,41,30.12,29.88,20,3,20,0.00
2012-2-19,45.1,36.8,26.0,27.3,24.9,22.0,86,63,47,30.11,29.92,14,2,14,0.00
2012-2-20,43.6,34.8,25.1,24.4,22.5,20.8,87,62,44,30.37,29.98,20,4,20,0.00
2012-2-21,46.6,35.5,21.1,36.5,27.0,17.7,93,73,44,30.38,29.85,24,5,26,0.00
2012-2-22,59.1,48.4,38.4,38.6,35.6,27.8,86,64,31,29.85,29.45,17,2,17,0.00
2012-2-23,60.1,51.0,42.6,41.6,34.7,28.1,81,56,31,29.69,29.40,20,3,20,0.00
2012-2-24,50.0,42.2,38.5,42.7,38.1,27.8,99,87,44,29.64,29.39,23,4,26,0.35
2012-2-25,41.2,37.3,33.2,29.8,23.5,18.6,70,58,43,30.16,29.55,27,7,31,0.00
2012-2-26,46.0,35.5,26.3,25.7,22.6,19.4,90,61,42,30.44,30.16,16,2,19,0.00
2012-2-27,57.6,43.5,27.3,35.1,30.7,23.8,94,64,38,30.43,30.12,19,2,19,0.00
2012-2-28,50.9,41.1,33.1,30.7,26.0,22.4,81,56,37,30.44,30.23,21,3,21,0.00
2012-2-29,43.2,39.0,31.9,42.7,36.7,26.5,99,92,78,30.35,29.66,15,2,16,1.40
2012-3-1,51.9,45.3,38.5,48.5,40.8,30.8,100,85,67,29.96,29.61,14,3,15,0.00
2012-3-2,45.4,39.7,27.7,42.5,35.2,26.4,98,84,71,30.08,29.70,17,4,17,0.13
2012-3-3,58.0,48.1,42.0,47.1,36.4,17.5,100,70,24,29.71,29.52,21,3,21,0.14
2012-3-4,42.7,37.9,32.1,29.2,24.7,19.5,81,60,44,29.84,29.64,18,3,20,0.00
2012-3-5,42.4,34.2,25.5,27.4,22.3,15.7,91,63,39,30.43,29.84,17,2,17,0.00
2012-3-6,44.5,33.6,24.3,26.1,18.6,12.8,74,54,38,30.67,30.43,12,2,12,0.00
2012-3-7,62.2,47.8,32.8,45.2,35.9,25.9,93,66,36,30.58,30.31,17,3,17,0.00
2012-3-8,70.3,60.1,50.1,53.6,49.1,44.9,89,68,53,30.31,29.86,24,6,28,0.00
2012-3-9,64.3,44.0,34.2,53.2,29.0,17.9,92,56,35,30.33,29.86,22,5,27,0.06
2012-3-10,42.7,33.3,26.0,21.7,15.2,9.9,82,49,29,30.56,30.33,20,3,20,0.00
2012-3-11,59.4,42.0,24.9,35.0,28.3,20.0,85,61,36,30.57,30.37,11,2,14,0.00
2012-3-12,65.8,49.6,29.7,48.0,37.3,28.3,96,67,34,30.39,30.11,14,2,14,0.00
2012-3-13,76.2,62.7,53.9,60.0,53.7,47.8,92,74,50,30.11,29.92,15,2,17,0.04
2012-3-14,74.0,58.8,43.4,48.9,40.6,32.3,96,57,25,30.17,30.00,14,1,14,0.00
2012-3-15,64.5,52.4,41.7,51.0,44.5,39.2,95,76,58,30.24,30.15,17,2,17,0.02
2012-3-16,64.5,51.2,45.8,54.4,48.2,44.9,98,90,69,30.21,30.11,12,1,12,0.00
2012-3-17,70.7,55.5,41.8,56.3,49.7,41.3,99,82,58,30.33,30.18,13,4,13,0.00
2012-3-18,64.4,51.7,45.7,54.8,49.2,45.4,99,92,71,30.37,30.21,11,3,11,0.00
2012-3-19,74.8,58.8,43.9,60.2,53.4,43.3,99,84,55,30.23,30.13,12,2,12,0.01
2012-3-20,75.0,64.5,57.8,62.7,59.5,57.3,100,85,59,30.27,30.17,12,2,12,0.00
2012-3-21,69.0,62.1,56.3,60.1,58.2,54.6,98,88,70,30.32,30.24,7,1,8,0.00
2012-3-22,67.3,59.6,52.7,61.9,57.7,51.9,100,94,81,30.26,30.10,6,0,6,0.00
2012-3-23,82.7,64.1,48.2,63.9,55.2,47.9,100,77,41,30.12,29.96,11,1,11,0.01
2012-3-24,60.9,54.4,49.5,55.0,49.9,40.9,94,85,58,30.01,29.89,20,3,22,0.31
2012-3-25,62.9,51.8,45.9,54.3,48.9,45.1,98,90,71,29.89,29.73,12,2,12,0.00
2012-3-26,56.0,48.8,35.2,51.9,31.7,10.5,88,54,28,30.20,29.74,32,7,32,0.00
2012-3-27,50.9,37.4,29.4,26.9,15.8,9.5,81,43,23,30.35,30.19,20,3,24,0.00
2012-3-28,65.3,53.1,31.4,53.6,40.2,22.3,82,62,42,30.19,29.60,14,2,15,0.05
2012-3-29,62.7,51.9,38.5,49.8,37.3,29.9,72,58,50,30.04,29.62,26,5,26,0.00
2012-3-30,56.9,43.0,28.1,39.3,32.5,25.6,92,68,48,30.14,29.86,17,2,18,0.00
2012-3-31,45.7,42.8,41.3,42.1,40.7,39.2,96,93,81,29.94,29.76,13,2,13,0.31
2012-4-1,56.7,46.9,40.8,47.1,42.8,39.4,97,86,66,29.91,29.58,10,1,12,0.20
2012-4-2,57.2,48.7,41.2,48.1,32.0,17.8,98,57,29,29.92,29.57,33,6,33,0.08
2012-4-3,65.1,49.9,33.5,39.7,26.5,17.9,79,43,21,30.01,29.78,15,2,16,0.00
2012-4-4,71.5,58.0,46.3,44.6,36.7,28.1,84,49,24,29.80,29.53,20,2,22,0.00
2012-4-5,58.5,48.5,34.5,33.4,29.3,25.4,77,48,33,29.93,29.74,15,3,17,0.00
2012-4-6,57.9,45.7,31.6,29.8,23.3,14.4,75,45,21,30.08,29.93,20,4,22,0.00
2012-4-7,61.9,47.8,30.0,25.3,20.6,16.6,73,37,19,30.18,30.00,25,3,25,0.00
2012-4-8,69.5,50.6,28.2,39.6,28.9,22.3,89,49,21,30.08,29.74,26,3,26,0.00
2012-4-9,63.2,54.3,43.6,36.8,29.9,24.1,62,40,27,29.84,29.70,27,4,27,0.00
2012-4-10,60.0,49.4,37.2,38.4,31.6,25.6,88,54,29,29.85,29.70,22,3,22,0.00
2012-4-11,51.4,42.7,36.2,35.7,32.1,28.4,81,67,47,29.99,29.83,17,3,18,0.00
2012-4-12,57.0,46.6,38.7,37.3,33.9,29.7,82,63,36,30.16,29.98,19,3,22,0.00
2012-4-13,63.0,45.8,28.1,34.8,31.6,26.9,96,63,29,30.27,30.16,17,2,18,0.00
2012-4-14,71.0,54.6,32.6,43.0,37.4,30.5,93,58,28,30.25,30.04,12,1,12,0.00
2012-4-15,81.3,66.1,53.7,60.1,54.6,42.8,97,69,45,30.06,29.96,15,1,15,0.07
2012-4-16,86.2,72.7,54.2,63.3,58.8,52.2,95,64,40,30.02,29.89,15,4,15,0.00
2012-4-17,74.7,66.6,49.9,58.4,44.4,33.8,77,47,26,30.16,29.91,18,3,21,0.00
2012-4-18,55.7,51.1,47.2,46.4,40.1,33.3,96,67,49,30.27,30.13,12,1,13,0.18
2012-4-19,70.5,56.4,47.2,53.5,48.6,45.1,99,78,45,30.13,29.99,9,1,9,0.10
2012-4-20,73.2,58.2,40.7,57.1,51.1,39.9,99,79,53,30.02,29.82,15,2,15,0.00
2012-4-21,76.5,63.4,52.8,62.2,57.2,49.1,98,82,53,29.82,29.60,21,3,21,0.56
2012-4-22,52.9,47.7,45.5,49.3,45.3,41.9,97,91,83,29.78,29.32,20,4,24,2.37
2012-4-23,45.7,41.8,37.5,44.5,39.5,35.1,98,92,79,29.46,29.22,19,3,19,0.28
2012-4-24,60.1,47.1,33.9,35.3,31.4,25.1,92,59,30,29.73,29.45,21,3,21,0.00
2012-4-25,65.5,49.3,33.6,41.8,34.5,27.8,97,63,26,29.90,29.73,17,2,18,0.00
2012-4-26,59.6,52.3,37.3,56.8,47.1,34.3,98,83,62,29.91,29.59,13,2,14,0.08
2012-4-27,57.1,48.4,35.2,55.4,35.2,29.9,94,62,42,30.18,29.67,22,3,24,0.00
2012-4-28,53.2,42.7,30.3,38.3,31.4,25.6,96,67,39,30.31,30.14,11,1,11,0.00
2012-4-29,64.9,50.0,33.0,38.0,32.2,25.3,96,57,24,30.25,30.11,17,2,17,0.00
2012-4-30,59.7,48.8,30.8,47.5,35.0,24.4,90,61,33,30.34,30.14,13,2,13,0.00
2012-5-1,80.3,63.7,53.3,63.8,56.9,45.8,97,80,50,30.14,29.95,16,2,16,0.31
2012-5-2,59.3,55.7,52.1,58.3,53.7,51.1,98,93,85,30.14,29.99,12,2,14,0.22
2012-5-3,75.7,60.9,52.0,66.2,57.8,51.3,99,90,70,30.16,30.02,9,1,9,0.21
2012-5-4,83.0,66.4,56.5,71.1,62.6,56.1,99,89,65,30.03,29.83,18,1,20,0.08
2012-5-5,75.3,66.6,59.0,66.0,62.2,58.1,100,86,70,30.00,29.83,14,2,14,0.01
2012-5-6,66.8,59.9,52.6,58.2,56.2,50.1,98,88,73,30.08,29.98,8,1,8,0.00
2012-5-7,61.8,56.3,50.1,55.9,51.1,47.9,97,83,65,30.11,30.03,14,2,14,0.02
2012-5-8,69.6,61.4,55.9,61.9,56.7,48.0,97,85,70,30.04,29.79,20,4,21,0.21
2012-5-9,74.4,65.6,56.0,65.6,59.9,53.8,100,84,57,29.79,29.60,12,1,12,0.15
2012-5-10,64.8,56.3,43.5,54.8,45.9,37.1,98,71,38,29.89,29.55,24,3,24,0.03
2012-5-11,70.8,55.3,40.8,43.6,39.8,35.4,93,61,28,30.17,29.89,20,3,20,0.00
2012-5-12,80.3,62.9,40.3,51.3,45.9,39.4,97,60,30,30.27,30.15,14,1,14,0.00
2012-5-13,80.6,66.1,0.0,60.9,55.6,48.2,93,70,47,30.19,30.07,11,1,11,0.00
2012-5-14,66.0,63.4,61.9,63.2,60.7,58.8,98,91,81,30.12,30.03,11,2,12,0.20
2012-5-15,76.1,67.5,62.1,67.8,64.1,61.5,99,90,71,30.04,29.88,10,2,11,0.80
2012-5-16,82.2,71.2,60.7,66.0,61.5,55.6,100,75,42,29.91,29.81,11,1,12,0.00
2012-5-17,73.5,62.4,49.5,58.7,46.0,38.9,90,58,32,30.13,29.91,15,3,17,0.00
2012-5-18,76.8,61.5,44.0,50.9,45.5,41.9,97,61,31,30.20,30.10,12,1,14,0.00
2012-5-19,82.8,64.2,43.4,55.8,48.5,42.1,96,62,29,30.17,30.07,12,1,12,0.00
2012-5-20,83.0,67.1,48.5,63.0,53.6,44.3,98,67,30,30.18,30.11,18,2,19,0.00
2012-5-21,70.7,65.3,61.6,64.8,62.5,60.9,98,91,80,30.13,29.93,14,2,15,0.00
2012-5-22,77.5,67.2,60.7,65.0,62.4,59.8,98,86,62,29.93,29.78,7,1,8,0.00
2012-5-23,81.3,69.1,56.1,67.8,63.1,55.8,99,83,57,29.98,29.83,11,1,11,0.00
2012-5-24,80.8,69.9,64.6,68.8,64.6,61.4,99,85,56,30.10,29.97,17,2,18,0.00
2012-5-25,83.0,72.8,64.5,71.3,67.6,62.4,99,85,62,30.13,30.07,11,2,12,0.01
2012-5-26,86.2,74.2,64.6,74.5,69.3,64.0,100,86,66,30.14,30.04,12,1,12,0.00
2012-5-27,86.5,75.8,67.2,72.7,68.2,63.8,98,79,50,30.13,29.96,15,2,15,0.02
2012-5-28,92.0,76.8,61.7,74.8,68.7,61.3,99,78,54,30.01,29.88,10,1,10,0.00
2012-5-29,89.8,77.2,67.5,74.0,70.8,65.2,99,83,56,29.90,29.68,18,2,19,0.96
2012-5-30,81.0,71.3,62.2,68.0,65.4,58.1,99,83,48,29.78,29.68,8,1,8,0.01
2012-5-31,79.5,68.9,57.5,62.4,56.6,50.2,100,69,38,29.91,29.70,13,2,15,0.00
2012-6-1,76.0,66.1,55.4,69.4,60.0,52.9,98,81,64,29.92,29.67,20,3,21,1.46
2012-6-2,72.2,62.6,52.2,59.3,53.6,47.8,99,75,45,29.80,29.66,25,2,25,0.13
2012-6-3,75.7,61.9,47.2,57.8,52.9,46.6,99,75,45,29.81,29.67,18,1,18,0.05
2012-6-4,68.8,59.6,53.8,58.3,54.6,50.9,99,85,55,29.78,29.61,19,2,20,0.58
2012-6-5,67.5,57.7,46.8,52.1,49.3,46.0,98,76,50,29.95,29.78,11,1,12,0.00
2012-6-6,76.0,60.7,44.8,56.8,51.1,44.3,99,74,42,30.00,29.92,12,1,12,0.00
2012-6-7,79.7,64.6,50.1,59.1,54.1,49.3,99,72,41,29.99,29.89,14,1,15,0.00
2012-6-8,82.8,67.5,51.9,59.8,55.1,51.1,98,69,36,29.98,29.86,13,1,14,0.00
2012-6-9,87.8,71.3,53.6,63.6,57.7,52.8,98,67,35,29.97,29.89,14,1,14,0.00
2012-6-10,92.7,76.1,59.3,66.2,62.2,58.4,98,67,35,30.09,29.97,9,1,10,0.00
2012-6-11,84.3,73.9,65.6,73.1,67.7,62.8,96,82,65,30.14,30.05,16,2,16,0.01
2012-6-12,70.1,68.3,65.7,68.7,67.0,63.3,99,96,90,30.07,29.79,14,2,15,1.01
2012-6-13,77.4,69.8,62.7,67.4,58.8,50.3,99,71,44,30.05,29.82,17,4,22,0.00
2012-6-14,81.3,69.6,59.7,63.8,59.1,54.4,92,70,47,30.22,30.05,11,2,11,0.00
2012-6-15,80.7,68.0,53.7,62.5,58.1,53.1,99,73,46,30.28,30.20,11,1,11,0.00
2012-6-16,82.0,67.8,53.2,59.4,55.1,51.1,98,68,41,30.33,30.17,10,1,11,0.00
2012-6-17,73.5,64.2,54.9,60.1,56.8,52.9,95,78,59,30.22,30.04,10,2,10,0.00
2012-6-18,68.4,62.0,53.7,61.5,57.9,52.6,97,87,75,30.12,30.06,11,1,11,0.00
2012-6-19,84.0,71.3,63.3,73.2,65.9,60.4,93,84,67,30.15,30.05,8,1,8,0.00
2012-6-20,95.8,80.8,66.6,75.6,71.2,65.7,98,76,47,30.10,29.96,10,1,10,0.00
2012-6-21,95.8,82.1,67.5,74.4,71.3,67.0,99,73,43,29.97,29.79,13,1,13,0.00
2012-6-22,93.2,79.9,70.2,74.8,71.5,65.5,98,78,42,29.82,29.71,19,1,19,0.28
2012-6-23,86.0,74.7,63.3,69.6,63.2,56.3,99,72,39,29.98,29.81,12,2,12,0.01
2012-6-24,86.8,73.4,57.0,65.4,61.4,56.4,99,70,40,30.01,29.86,9,1,9,0.00
2012-6-25,80.5,71.5,61.8,67.7,59.7,45.6,94,69,38,29.86,29.66,18,2,20,0.04
2012-6-26,76.8,64.8,55.0,52.3,49.4,46.2,86,59,39,29.82,29.74,27,3,27,0.00
2012-6-27,83.7,68.1,49.1,58.9,53.6,48.3,98,65,35,29.87,29.79,19,2,21,0.00
2012-6-28,90.5,75.0,55.7,67.1,61.4,54.6,97,66,36,29.88,29.72,11,1,11,0.00
2012-6-29,97.5,82.5,67.2,79.6,72.1,64.7,96,73,49,29.77,29.64,23,1,23,0.04
2012-6-30,90.3,78.0,66.9,72.0,68.9,64.9,99,76,45,29.81,29.68,13,1,13,0.06
2012-7-1,95.0,79.5,64.7,75.7,69.2,64.1,98,74,44,29.87,29.75,12,1,12,0.05
2012-7-2,88.4,76.5,64.3,68.0,61.9,53.8,96,66,33,29.93,29.86,17,2,17,0.00
2012-7-3,92.2,76.7,59.3,67.8,63.1,58.3,97,67,35,29.95,29.83,10,1,10,0.00
2012-7-4,94.1,81.3,69.6,75.2,70.4,66.0,93,71,47,29.86,29.73,13,1,15,0.01
2012-7-5,94.8,84.3,72.6,75.0,69.5,63.3,86,63,37,29.85,29.75,15,2,17,0.00
2012-7-6,95.5,80.9,64.9,72.8,67.2,56.8,97,67,41,29.93,29.84,14,1,14,0.00
2012-7-7,99.9,84.1,71.2,75.6,71.6,68.5,97,70,38,29.89,29.76,18,1,19,0.08
2012-7-8,86.9,78.4,70.4,74.2,71.8,69.0,98,82,58,29.86,29.79,12,1,12,0.00
2012-7-9,89.3,78.4,70.2,71.0,63.8,59.4,98,63,40,29.95,29.83,11,1,11,0.00
2012-7-10,88.3,75.7,66.9,69.5,65.9,61.3,98,74,44,30.04,29.94,10,1,10,0.14
2012-7-11,88.2,75.7,62.4,70.1,63.8,57.6,98,70,39,30.15,30.04,10,2,11,0.00
2012-7-12,89.3,75.7,61.1,65.7,61.9,55.6,97,66,38,30.18,30.12,12,1,12,0.00
2012-7-13,89.3,75.9,64.4,68.7,64.1,61.3,92,69,45,30.20,30.14,6,0,6,0.00
2012-7-14,80.3,71.8,64.2,71.2,67.4,63.3,98,86,69,30.22,30.11,8,1,8,2.16
2012-7-15,89.5,78.5,70.2,76.9,72.9,68.8,99,84,62,30.13,29.93,14,1,14,1.52
2012-7-16,90.8,77.8,67.3,75.3,71.2,67.3,100,83,51,29.96,29.80,11,1,11,0.00
2012-7-17,95.3,81.3,66.7,74.8,70.5,66.2,99,73,45,29.88,29.77,11,1,11,0.00
2012-7-18,97.4,81.4,72.2,80.0,73.2,67.3,96,78,51,29.88,29.76,17,1,19,0.00
2012-7-19,86.8,76.4,69.4,76.3,72.1,68.0,97,87,68,29.92,29.84,13,1,13,0.13
2012-7-20,70.7,67.4,61.9,69.1,65.6,60.8,98,94,86,30.01,29.83,17,2,17,1.13
2012-7-21,77.0,68.2,61.9,66.2,62.5,60.6,97,83,61,30.10,29.99,7,1,8,0.04
2012-7-22,81.7,72.6,65.4,70.0,67.2,63.9,97,84,64,30.16,30.08,8,1,9,0.00
2012-7-23,89.0,76.4,66.8,76.3,71.7,66.2,99,87,60,30.11,29.84,10,1,11,0.00
2012-7-24,91.7,81.0,70.2,78.7,72.8,64.1,97,77,58,29.84,29.61,14,1,14,0.00
2012-7-25,85.4,74.3,62.2,64.2,59.0,54.3,90,61,40,29.92,29.75,15,2,16,0.00
2012-7-26,91.9,75.3,64.0,78.9,69.5,60.8,97,83,62,29.82,29.64,27,2,31,0.57
2012-7-27,88.2,78.8,70.2,75.8,72.9,69.9,99,84,61,29.85,29.68,9,1,9,0.01
2012-7-28,89.0,80.5,68.6,76.9,71.7,66.2,97,76,57,29.91,29.83,12,1,12,0.00
2012-7-29,86.0,72.6,65.0,72.6,67.8,64.4,99,86,59,30.02,29.89,10,1,11,0.02
2012-7-30,86.1,75.3,66.5,71.3,69.1,65.9,99,83,55,30.08,30.00,12,2,12,0.00
2012-7-31,86.0,74.7,64.6,70.7,67.2,63.6,99,79,57,30.04,29.87,16,1,16,0.00
2012-8-1,84.8,75.0,68.9,72.6,69.8,64.9,98,85,63,29.91,29.80,7,1,7,0.00
2012-8-2,90.6,76.2,63.9,74.3,69.4,63.6,99,82,49,29.91,29.84,11,1,11,0.00
2012-8-3,91.5,77.5,67.1,78.0,71.5,66.5,99,83,58,30.07,29.90,13,1,13,0.00
2012-8-4,90.5,79.1,70.5,77.4,73.0,68.3,97,83,59,30.16,30.07,16,2,16,0.00
2012-8-5,91.6,79.2,71.7,76.8,73.9,69.4,98,85,59,30.14,29.96,21,3,23,0.43
2012-8-6,87.5,77.4,68.0,74.7,70.9,67.0,100,83,55,30.03,29.94,9,1,9,0.00
2012-8-7,86.3,73.7,62.1,71.2,66.2,61.8,99,80,54,30.00,29.93,7,1,7,0.00
2012-8-8,89.7,76.6,65.4,74.8,68.5,64.8,99,79,47,29.97,29.90,7,0,7,0.00
2012-8-9,89.7,77.1,65.7,78.4,71.3,65.1,99,84,56,29.94,29.82,11,1,12,0.39
2012-8-10,82.0,75.3,69.2,73.9,71.6,66.2,98,89,72,29.84,29.71,16,1,16,1.45
2012-8-11,85.5,75.8,69.0,72.2,69.5,64.2,99,83,52,29.90,29.75,17,1,17,0.65
2012-8-12,83.5,72.9,63.8,68.9,64.6,61.6,99,77,52,29.97,29.87,12,1,12,0.00
2012-8-13,86.0,71.9,58.7,67.4,62.9,58.3,100,77,43,30.03,29.93,12,1,13,0.00
2012-8-14,83.0,72.2,64.3,73.9,69.0,63.3,98,90,70,29.95,29.83,12,1,12,0.31
2012-8-15,82.2,72.9,65.8,72.4,68.5,65.0,99,87,68,29.88,29.81,9,1,10,0.03
2012-8-16,85.3,72.2,62.9,67.1,64.0,59.5,99,79,45,29.95,29.87,11,1,11,0.01
2012-8-17,87.4,73.2,61.4,71.1,66.4,60.8,99,82,52,29.91,29.76,13,1,13,0.09
2012-8-18,79.8,69.8,58.5,68.8,62.2,55.1,98,80,46,29.93,29.83,12,1,12,0.68
2012-8-19,75.5,64.7,54.1,63.8,59.1,53.8,99,84,57,29.97,29.89,6,0,7,0.00
2012-8-20,79.0,67.5,61.4,64.5,62.0,59.1,98,84,57,29.95,29.83,14,1,16,0.02
2012-8-21,82.0,67.7,57.7,66.2,61.3,57.1,99,83,45,30.08,29.94,8,1,8,0.01
2012-8-22,86.8,69.5,55.5,67.4,61.3,55.1,100,79,45,30.14,30.06,7,0,7,0.00
2012-8-23,88.5,71.9,58.4,67.9,63.1,57.3,99,78,36,30.15,30.08,6,0,6,0.00
2012-8-24,88.0,73.5,59.9,70.4,63.8,58.9,99,76,40,30.15,30.09,7,0,7,0.00
2012-8-25,80.4,71.9,64.4,69.0,66.1,63.3,97,83,65,30.22,30.15,12,1,13,0.00
2012-8-26,85.6,73.4,66.3,70.9,66.8,62.6,96,81,50,30.24,30.16,15,2,15,0.10
2012-8-27,86.3,75.7,67.6,74.2,70.4,66.7,99,85,57,30.17,29.94,13,2,13,0.46
2012-8-28,86.0,75.9,63.5,73.5,68.0,60.9,98,79,46,29.94,29.83,14,2,15,0.12
2012-8-29,81.0,68.6,58.0,62.3,59.8,57.3,100,77,47,30.01,29.90,12,1,12,0.00
2012-8-30,85.3,69.1,54.4,65.5,59.5,53.8,99,76,44,30.11,30.01,8,1,9,0.00
2012-8-31,90.1,73.4,59.0,72.3,63.3,58.3,99,76,37,30.08,29.93,11,1,11,0.00
2012-9-1,89.0,75.8,64.3,71.5,66.1,62.5,97,75,44,30.02,29.95,12,1,12,0.00
2012-9-2,77.4,71.9,65.4,73.5,70.0,64.2,98,94,85,30.04,29.96,11,1,11,0.18
2012-9-3,75.7,72.6,70.5,72.6,71.2,69.6,99,95,90,30.06,30.00,11,2,11,0.27
2012-9-4,86.3,76.9,70.9,77.2,73.6,70.3,100,90,68,30.03,29.82,13,2,13,0.66
2012-9-5,83.7,76.8,67.7,76.3,71.9,66.8,98,85,66,29.84,29.76,15,2,15,0.01
2012-9-6,82.2,72.3,66.3,72.7,68.3,65.7,99,88,65,29.90,29.82,7,0,8,0.00
2012-9-7,88.5,75.7,65.1,74.8,69.6,64.8,100,83,58,29.92,29.81,13,1,14,0.01
2012-9-8,83.2,71.9,63.6,73.8,68.9,62.1,98,91,69,29.83,29.58,22,3,22,0.88
2012-9-9,78.3,65.0,56.2,62.3,57.6,52.6,98,79,43,29.93,29.79,10,1,10,0.01
2012-9-10,72.0,61.0,49.3,55.4,51.1,46.3,97,73,43,30.16,29.92,21,2,21,0.00
2012-9-11,75.7,58.5,43.1,55.7,49.2,42.6,100,76,38,30.30,30.16,11,1,11,0.01
2012-9-12,80.0,62.4,46.2,59.6,52.3,45.9,100,75,38,30.36,30.28,9,1,9,0.00
2012-9-13,81.2,63.7,48.9,61.8,55.4,48.4,99,78,44,30.37,30.26,8,1,8,0.00
2012-9-14,79.5,64.4,49.4,65.3,57.7,49.1,99,82,51,30.28,30.08,10,1,10,0.01
2012-9-15,71.8,62.8,51.9,62.5,52.6,49.1,99,72,46,30.19,30.08,20,3,20,0.00
2012-9-16,72.7,58.8,48.8,55.0,50.1,41.5,99,77,37,30.15,30.05,11,1,11,0.00
2012-9-17,75.8,61.7,43.3,63.2,53.6,42.8,99,78,48,30.13,29.97,13,2,13,0.00
2012-9-18,75.5,69.0,65.1,71.0,67.2,62.8,98,94,84,29.97,29.57,30,5,37,1.39
2012-9-19,67.5,59.7,46.5,66.1,51.2,42.4,98,76,42,30.17,29.76,14,2,17,0.03
2012-9-20,71.5,56.4,41.1,55.5,49.4,40.8,100,81,49,30.20,30.07,10,1,10,0.00
2012-9-21,76.8,62.0,46.2,62.1,55.6,45.8,100,81,55,30.09,29.98,12,2,12,0.01
2012-9-22,80.8,68.4,60.2,68.0,62.9,56.2,96,84,62,29.98,29.74,13,2,13,0.10
2012-9-23,66.4,56.8,44.9,56.2,46.3,41.6,97,70,43,30.16,29.86,16,2,17,0.00
2012-9-24,66.8,52.2,41.5,48.5,43.5,39.6,99,76,39,30.23,30.12,12,1,12,0.00
2012-9-25,72.4,56.6,39.4,55.6,48.8,38.9,99,77,49,30.22,30.09,15,2,15,0.01
2012-9-26,77.8,67.1,60.9,66.8,61.1,55.4,96,82,63,30.11,30.01,16,2,16,0.00
2012-9-27,74.8,66.1,60.7,65.9,63.0,60.1,99,91,70,30.16,30.05,8,0,8,0.29
2012-9-28,76.3,67.5,60.0,67.2,62.5,52.9,99,85,67,30.09,29.92,10,1,10,0.08
2012-9-29,63.8,58.3,52.7,54.8,52.6,50.6,93,82,66,29.97,29.89,13,2,15,0.00
2012-9-30,68.8,55.5,46.7,53.4,50.3,45.6,99,85,51,29.91,29.79,21,1,26,0.03
2012-10-1,71.8,56.5,41.8,57.0,49.1,41.4,100,79,43,29.96,29.87,14,1,14,0.02
2012-10-2,64.2,61.8,59.2,64.2,60.6,56.4,100,96,87,29.97,29.90,11,1,11,1.11
2012-10-3,75.7,68.4,64.2,72.8,67.3,64.2,100,96,81,30.11,29.94,7,0,8,0.06
2012-10-4,77.6,67.9,57.1,72.4,65.7,56.8,100,93,70,30.12,30.04,12,1,12,0.01
2012-10-5,80.2,64.0,51.4,63.5,57.9,51.4,100,83,50,30.11,29.93,9,1,9,0.01
2012-10-6,71.1,61.5,51.8,63.1,55.1,42.6,96,80,60,30.02,29.81,24,2,24,0.01
2012-10-7,52.1,47.5,41.0,46.8,43.2,38.9,98,85,70,30.15,30.02,8,0,9,0.10
2012-10-8,50.9,45.1,38.1,44.2,41.8,37.1,99,88,73,30.30,30.15,8,1,9,0.01
2012-10-9,55.3,51.2,45.2,52.8,48.4,42.4,97,90,80,30.23,30.06,10,1,10,0.02
2012-10-10,66.0,57.3,48.3,57.1,51.2,40.4,99,82,52,30.06,29.84,19,1,19,0.08
2012-10-11,59.4,48.7,41.0,40.8,37.3,34.0,94,66,41,30.25,30.04,12,2,13,0.00
2012-10-12,57.7,45.9,34.1,44.3,35.5,28.8,98,70,41,30.46,30.13,20,2,25,0.00
2012-10-13,56.4,42.4,27.7,36.5,31.0,26.3,96,67,38,30.55,30.31,11,1,12,0.00
2012-10-14,70.5,57.8,39.3,57.2,49.8,36.2,97,76,55,30.31,29.90,18,3,18,0.00
2012-10-15,66.8,61.9,56.0,62.6,58.6,48.4,98,89,75,29.91,29.65,18,2,18,0.63
2012-10-16,59.0,51.2,38.7,49.0,42.9,37.9,97,74,54,29.94,29.74,21,2,21,0.00
2012-10-17,64.2,47.9,34.0,48.3,42.0,33.4,100,82,51,30.03,29.93,8,1,8,0.00
2012-10-18,67.5,57.5,47.1,59.7,51.4,45.7,95,81,57,29.99,29.83,20,3,20,0.01
2012-10-19,74.8,65.4,58.2,66.1,62.4,57.2,100,91,73,29.83,29.59,14,2,14,1.05
2012-10-20,62.9,53.6,43.8,54.0,46.2,40.7,100,78,49,29.94,29.66,15,4,15,0.00
2012-10-21,63.4,52.6,42.3,47.6,43.5,40.4,94,73,51,30.10,29.94,15,4,15,0.00
2012-10-22,67.1,51.9,39.3,48.4,43.5,37.1,96,75,48,30.18,30.07,12,1,12,0.00
2012-10-23,73.0,56.1,42.3,61.5,52.1,41.6,98,87,66,30.16,30.03,10,0,10,0.03
2012-10-24,78.3,62.1,49.5,61.7,56.1,49.2,100,83,49,30.14,30.04,6,0,6,0.00
2012-10-25,62.0,59.6,57.3,59.2,57.9,56.8,99,94,89,30.22,30.14,9,1,9,0.00
2012-10-26,65.7,61.1,58.7,60.2,58.2,56.8,97,90,80,30.20,30.07,8,1,8,0.00
2012-10-27,65.5,60.2,0.0,57.9,55.4,52.6,94,83,71,30.07,29.87,11,1,11,0.00
2012-10-28,58.2,54.3,51.1,53.8,50.0,44.0,97,86,70,29.87,29.61,19,3,20,0.97
2012-10-29,56.9,51.6,49.3,56.9,50.1,47.7,100,95,84,29.61,28.24,35,8,35,4.86
2012-10-30,55.1,41.7,39.2,55.1,41.4,38.8,100,99,98,29.46,28.34,36,7,36,0.87
2012-10-31,46.0,42.2,38.7,42.3,39.8,38.3,100,91,79,29.62,29.45,14,1,15,0.01
2012-11-1,48.1,44.6,39.5,41.1,39.0,36.1,88,81,74,29.69,29.61,11,1,13,0.00
2012-11-2,48.1,43.8,38.1,39.8,36.7,34.0,87,76,60,29.86,29.69,22,2,22,0.00
2012-11-3,45.2,42.6,40.2,35.9,33.3,31.5,80,69,61,30.03,29.85,20,4,20,0.00
2012-11-4,42.0,40.0,38.5,32.3,30.9,29.1,74,70,66,30.06,30.02,17,4,17,0.00
2012-11-5,42.7,37.1,28.6,30.7,28.1,25.2,90,70,58,30.20,30.03,23,4,23,0.00
2012-11-6,43.1,33.6,22.0,27.9,24.7,20.5,95,71,53,30.25,30.06,10,1,10,0.00
2012-11-7,40.4,36.9,34.5,33.4,28.5,21.5,91,72,57,30.06,29.87,23,4,26,0.04
2012-11-8,49.2,42.0,36.1,28.4,22.4,16.9,73,46,35,30.02,29.85,24,6,24,0.00
2012-11-9,53.8,41.2,32.1,36.5,30.4,19.5,94,67,48,30.25,30.02,24,2,24,0.00
2012-11-10,57.8,42.6,29.3,43.3,36.2,28.6,97,80,53,30.40,30.25,7,0,7,0.00
2012-11-11,66.5,50.8,36.4,49.3,43.5,35.4,99,78,45,30.48,30.39,12,1,13,0.00
2012-11-12,68.5,56.2,44.1,59.6,51.8,43.1,98,86,67,30.43,30.13,17,3,17,0.01
2012-11-13,61.5,42.6,29.9,59.6,37.5,27.6,97,83,57,30.48,30.12,24,4,24,0.76
2012-11-14,46.7,36.9,26.7,30.8,28.0,25.3,96,72,48,30.56,30.44,14,2,15,0.00
2012-11-15,48.6,35.6,26.2,32.5,28.5,24.9,96,78,52,30.47,30.32,9,1,10,0.00
2012-11-16,49.3,36.7,28.1,33.7,30.3,26.3,96,80,51,30.47,30.32,11,1,12,0.00
2012-11-17,56.6,39.3,25.0,33.6,29.0,23.8,96,71,38,30.61,30.47,12,1,12,0.00
2012-11-18,52.0,38.5,27.8,39.8,33.4,26.6,96,83,60,30.65,30.55,14,2,14,0.00
2012-11-19,52.4,41.4,31.9,42.3,36.6,30.9,97,84,67,30.55,30.25,10,1,10,0.00
2012-11-20,50.9,40.9,32.7,41.3,36.9,31.8,97,86,64,30.25,30.10,7,0,7,0.00
2012-11-21,54.4,37.8,26.5,38.6,31.3,26.0,99,81,43,30.25,30.15,11,1,11,0.00
2012-11-22,58.9,37.6,23.6,39.7,30.9,22.6,97,80,40,30.30,30.16,6,0,6,0.01
2012-11-23,58.0,42.6,26.4,40.1,33.3,25.3,97,73,45,30.17,29.75,22,2,22,0.00
2012-11-24,44.9,37.5,32.0,29.2,23.3,20.8,65,56,49,29.97,29.78,26,6,26,0.00
2012-11-25,37.9,32.7,23.5,24.3,22.5,19.8,88,66,57,30.03,29.92,21,2,21,0.00
2012-11-26,47.5,33.1,21.7,30.1,24.9,19.4,93,74,45,30.26,30.02,16,1,16,0.00
2012-11-27,35.8,34.3,29.2,34.8,32.4,26.1,96,93,81,30.27,30.19,11,1,11,0.63
2012-11-28,40.9,33.5,26.3,32.2,27.5,22.5,96,79,56,30.37,30.22,18,2,18,0.00
2012-11-29,44.9,32.1,23.1,29.7,24.9,20.6,93,76,49,30.45,30.32,14,1,14,0.00
2012-11-30,50.2,34.5,21.6,34.9,27.6,20.3,96,78,44,30.41,30.33,8,0,8,0.00
2012-12-1,52.2,41.6,36.2,44.7,38.5,32.4,96,89,74,30.47,30.36,11,1,11,0.00
2012-12-2,51.4,45.1,40.1,48.1,43.4,39.7,99,94,81,30.41,30.13,13,2,13,0.00
2012-12-3,66.5,54.1,42.0,55.6,50.2,41.5,99,87,67,30.25,30.13,9,0,9,0.00
2012-12-4,66.9,57.6,50.5,57.8,53.2,49.4,97,86,71,30.23,29.96,13,2,13,0.00
2012-12-5,58.4,48.5,34.2,53.2,37.7,23.2,87,67,51,30.28,29.94,24,5,24,0.00
2012-12-6,42.9,32.7,26.5,25.4,23.0,20.5,88,68,49,30.38,30.26,17,2,17,0.00
2012-12-7,42.6,37.5,29.3,42.1,35.5,25.4,98,92,83,30.28,30.00,5,1,5,0.23
2012-12-8,50.0,45.6,41.7,48.9,45.2,41.3,100,98,94,30.03,29.88,7,1,7,0.03
2012-12-9,46.7,43.6,40.9,46.7,43.3,40.4,100,99,95,30.22,29.98,13,1,13,0.35
2012-12-10,57.4,51.0,41.3,57.1,50.9,41.0,100,100,99,29.98,29.56,13,1,13,0.01
2012-12-11,52.9,42.4,31.7,52.6,36.2,27.5,99,80,58,30.22,29.61,19,3,19,0.04
2012-12-12,41.9,33.8,27.1,31.5,28.6,26.3,98,82,60,30.45,30.22,9,1,10,0.00
2012-12-13,46.7,33.9,23.7,31.4,26.0,22.5,96,75,44,30.48,30.36,10,1,10,0.00
2012-12-14,51.6,32.5,20.2,33.3,26.6,19.2,97,82,43,30.36,30.20,9,1,9,0.00
2012-12-15,48.3,37.1,25.5,36.9,30.9,24.5,97,80,59,30.33,30.17,9,1,10,0.00
2012-12-16,50.0,45.8,40.8,46.8,43.3,36.8,99,91,83,30.18,29.85,12,2,12,0.09
2012-12-17,47.1,44.6,43.6,46.8,44.4,43.3,100,99,99,29.87,29.56,13,2,13,0.19
2012-12-18,55.6,46.4,38.2,50.3,41.7,31.6,100,85,66,29.75,29.50,20,3,21,0.04
2012-12-19,47.4,39.5,32.5,36.4,32.6,29.4,89,77,64,30.18,29.75,21,2,23,0.00
2012-12-20,45.9,36.5,27.3,45.1,32.5,26.3,97,86,64,30.23,29.56,24,3,25,0.41
2012-12-21,53.4,40.7,33.1,53.4,35.5,27.3,100,82,67,29.57,29.19,32,6,34,0.81
2012-12-22,39.1,35.9,31.3,30.2,25.3,22.5,90,65,52,29.95,29.44,30,7,30,0.00
2012-12-23,47.2,33.8,24.3,27.3,23.0,18.0,94,67,35,30.03,29.88,16,2,18,0.00
2012-12-24,37.7,29.6,0.0,32.2,26.3,19.5,98,88,62,30.10,29.91,10,1,11,0.00
2012-12-25,40.2,35.0,31.4,35.6,31.6,25.0,99,88,74,30.28,29.90,15,3,15,0.22
2012-12-26,38.9,32.4,29.0,38.2,29.2,24.2,98,88,77,30.30,29.37,27,4,28,0.02
2012-12-27,38.9,34.1,31.9,36.8,29.9,25.4,97,85,75,29.95,29.33,26,6,29,0.09
2012-12-28,37.7,32.9,26.3,29.1,27.1,24.5,94,80,70,30.12,29.95,16,3,18,0.00
2012-12-29,33.2,30.4,27.1,31.4,27.8,25.4,96,90,80,30.05,29.55,16,2,16,0.00
2012-12-30,35.7,32.4,29.1,27.1,23.6,21.5,80,70,58,30.26,29.75,26,6,27,0.00
2012-12-31,39.3,31.7,24.6,30.2,23.9,20.0,83,73,64,30.29,29.96,12,2,13,0.00
2013-1-1,39.4,36.9,30.6,32.1,29.9,21.1,83,76,67,30.04,29.90,11,2,11,0.00